When you browse on this site, cookies collect data to enhance your experience and personalize the content and advertising you see.
Visit our Privacy Policy to learn more. By continuing to use the site, you agree to this use of cookies and data.
EN

Hourly Weather Satif

Today, 7 July, Tuesday

Time Temperature Precipitation Wind Pressure Humidity
00:00 +18°C° 0 mm 2 mps 673 mmHg 65%
01:00 +18°C° 0 mm 2 mps 672 mmHg 65%
02:00 +18°C° 0 mm 1 mps 672 mmHg 65%
03:00 +18°C° 0 mm 1 mps 672 mmHg 64%
04:00 +18°C° 0 mm 1 mps 672 mmHg 63%
05:00 +19°C° 0 mm 1 mps 673 mmHg 62%
06:00 +19°C° 0 mm 1 mps 673 mmHg 61%
07:00 +20°C° 0 mm 2 mps 674 mmHg 53%
08:00 +23°C° 0 mm 2 mps 674 mmHg 46%
09:00 +24°C° 0 mm 2 mps 675 mmHg 38%
10:00 +26°C° 0 mm 2 mps 675 mmHg 34%
11:00 +27°C° 0 mm 2 mps 675 mmHg 30%
12:00 +29°C° 0 mm 2 mps 676 mmHg 27%
13:00 +29°C° 0 mm 3 mps 675 mmHg 26%
14:00 +30°C° 0 mm 4 mps 675 mmHg 25%
15:00 +32°C° 0 mm 4 mps 675 mmHg 24%
16:00 +30°C° 0 mm 4 mps 675 mmHg 26%
17:00 +29°C° 0 mm 4 mps 675 mmHg 29%
18:00 +28°C° 0 mm 5 mps 674 mmHg 31%
19:00 +27°C° 0 mm 3 mps 674 mmHg 35%
20:00 +25°C° 0 mm 2 mps 674 mmHg 40%
21:00 +24°C° 0 mm 1 mps 674 mmHg 44%
22:00 +23°C° 0 mm 1 mps 674 mmHg 45%
23:00 +23°C° 0 mm 1 mps 674 mmHg 46%

Tomorrow, 8 July, Wednesday

Time Temperature Precipitation Wind Pressure Humidity
00:00 +20°C° 0 mm 0 mps 674 mmHg 46%
01:00 +20°C° 0 mm 0 mps 674 mmHg 46%
02:00 +20°C° 0 mm 0 mps 673 mmHg 46%
03:00 +21°C° 0 mm 1 mps 673 mmHg 46%
04:00 +22°C° 0 mm 1 mps 673 mmHg 43%
05:00 +23°C° 0 mm 1 mps 674 mmHg 40%
06:00 +24°C° 0 mm 1 mps 674 mmHg 37%
07:00 +26°C° 0 mm 1 mps 675 mmHg 34%
08:00 +27°C° 0 mm 2 mps 675 mmHg 30%
09:00 +29°C° 0 mm 3 mps 676 mmHg 27%
10:00 +30°C° 0 mm 3 mps 676 mmHg 23%
11:00 +33°C° 0 mm 4 mps 676 mmHg 20%
12:00 +34°C° 0 mm 5 mps 677 mmHg 16%
13:00 +34°C° 0 mm 6 mps 676 mmHg 16%
14:00 +34°C° 0 mm 6 mps 676 mmHg 15%
15:00 +34°C° 0 mm 6 mps 676 mmHg 14%
16:00 +33°C° 0 mm 6 mps 676 mmHg 16%
17:00 +32°C° 0 mm 5 mps 675 mmHg 17%
18:00 +30°C° 0 mm 4 mps 675 mmHg 19%
19:00 +29°C° 0 mm 3 mps 675 mmHg 22%
20:00 +27°C° 0 mm 2 mps 675 mmHg 26%
21:00 +26°C° 0 mm 1 mps 675 mmHg 29%
22:00 +25°C° 0 mm 1 mps 675 mmHg 30%
23:00 +22°C° 0 mm 0 mps 674 mmHg 30%

Day after tomorrow, 9 July, Thursday

Time Temperature Precipitation Wind Pressure Humidity
00:00 +22°C° 0 mm 0 mps 674 mmHg 31%
01:00 +21°C° 0 mm 0 mps 674 mmHg 31%
02:00 +21°C° 0 mm 0 mps 674 mmHg 32%
03:00 +20°C° 0 mm 0 mps 673 mmHg 33%
04:00 +23°C° 0 mm 1 mps 674 mmHg 31%
05:00 +24°C° 0 mm 1 mps 674 mmHg 29%
06:00 +25°C° 0 mm 1 mps 674 mmHg 27%
07:00 +27°C° 0 mm 1 mps 675 mmHg 24%
08:00 +29°C° 0 mm 2 mps 676 mmHg 21%
09:00 +31°C° 0 mm 2 mps 676 mmHg 17%
10:00 +32°C° 0 mm 1 mps 676 mmHg 16%
11:00 +33°C° 0 mm 1 mps 676 mmHg 14%
12:00 +34°C° 0 mm 1 mps 676 mmHg 12%
13:00 +36°C° 0 mm 2 mps 676 mmHg 12%
14:00 +36°C° 0 mm 3 mps 676 mmHg 12%
15:00 +37°C° 0 mm 4 mps 675 mmHg 12%
16:00 +36°C° 0 mm 4 mps 675 mmHg 14%
17:00 +35°C° 0 mm 5 mps 675 mmHg 16%
18:00 +33°C° 0 mm 5 mps 675 mmHg 18%
19:00 +32°C° 0 mm 4 mps 675 mmHg 22%
20:00 +29°C° 0 mm 3 mps 675 mmHg 25%
21:00 +27°C° 0 mm 2 mps 674 mmHg 28%
22:00 +27°C° 0 mm 2 mps 674 mmHg 29%
23:00 +26°C° 0 mm 2 mps 673 mmHg 30%

10 July, Friday

Time Temperature Precipitation Wind Pressure Humidity
00:00 +25°C° 0 mm 2 mps 673 mmHg 31%
01:00 +25°C° 0 mm 1 mps 673 mmHg 32%
02:00 +24°C° 0 mm 1 mps 672 mmHg 33%
03:00 +23°C° 0 mm 1 mps 672 mmHg 35%
04:00 +25°C° 0 mm 1 mps 673 mmHg 32%
05:00 +26°C° 0 mm 1 mps 673 mmHg 30%
06:00 +27°C° 0 mm 1 mps 674 mmHg 27%
07:00 +28°C° 0 mm 1 mps 674 mmHg 25%
08:00 +30°C° 0 mm 2 mps 675 mmHg 23%
09:00 +31°C° 0 mm 2 mps 675 mmHg 21%
10:00 +32°C° 0 mm 2 mps 675 mmHg 19%
11:00 +33°C° 0 mm 1 mps 675 mmHg 18%
12:00 +34°C° 0 mm 1 mps 675 mmHg 16%
13:00 +35°C° 0 mm 2 mps 675 mmHg 17%
14:00 +35°C° 0 mm 3 mps 675 mmHg 18%
15:00 +35°C° 0 mm 4 mps 675 mmHg 18%
16:00 +33°C° 0.2 mm 4 mps 674 mmHg 22%
17:00 +32°C° 0.2 mm 4 mps 674 mmHg 26%
18:00 +29°C° 0.2 mm 4 mps 674 mmHg 30%
19:00 +29°C° 0.1 mm 4 mps 674 mmHg 30%
20:00 +28°C° 0.1 mm 3 mps 675 mmHg 31%
21:00 +28°C° 0.1 mm 3 mps 675 mmHg 31%
22:00 +27°C° 0 mm 3 mps 674 mmHg 32%
23:00 +27°C° 0 mm 2 mps 674 mmHg 32%

11 July, Saturday

Time Temperature Precipitation Wind Pressure Humidity
00:00 +26°C° 0 mm 2 mps 673 mmHg 33%
01:00 +26°C° 0 mm 1 mps 673 mmHg 34%
02:00 +26°C° 0 mm 1 mps 673 mmHg 35%
03:00 +25°C° 0 mm 1 mps 672 mmHg 36%
04:00 +26°C° 0 mm 1 mps 673 mmHg 34%
05:00 +27°C° 0 mm 1 mps 673 mmHg 33%
06:00 +27°C° 0 mm 2 mps 674 mmHg 31%
07:00 +29°C° 0 mm 2 mps 674 mmHg 28%
08:00 +30°C° 0 mm 3 mps 675 mmHg 26%
09:00 +33°C° 0 mm 3 mps 675 mmHg 23%
10:00 +34°C° 0 mm 4 mps 675 mmHg 21%
11:00 +35°C° 0 mm 4 mps 675 mmHg 20%
12:00 +36°C° 0 mm 4 mps 676 mmHg 18%
13:00 +36°C° 0 mm 4 mps 675 mmHg 18%
14:00 +36°C° 0 mm 4 mps 675 mmHg 18%
15:00 +35°C° 0 mm 5 mps 675 mmHg 18%
16:00 +35°C° 0 mm 5 mps 674 mmHg 19%
17:00 +34°C° 0 mm 5 mps 674 mmHg 20%
18:00 +34°C° 0 mm 5 mps 674 mmHg 20%
19:00 +33°C° 0 mm 4 mps 674 mmHg 24%
20:00 +30°C° 0 mm 4 mps 674 mmHg 27%
21:00 +29°C° 0 mm 4 mps 674 mmHg 30%
22:00 +28°C° 0 mm 3 mps 674 mmHg 31%
23:00 +28°C° 0 mm 3 mps 674 mmHg 32%

12 July, Sunday

Time Temperature Precipitation Wind Pressure Humidity
00:00 +28°C° 0 mm 3 mps 673 mmHg 33%
01:00 +27°C° 0 mm 3 mps 673 mmHg 33%
02:00 +27°C° 0 mm 3 mps 673 mmHg 33%
03:00 +26°C° 0 mm 3 mps 673 mmHg 33%
04:00 +27°C° 0 mm 3 mps 673 mmHg 33%
05:00 +27°C° 0 mm 4 mps 673 mmHg 32%
06:00 +27°C° 0 mm 4 mps 674 mmHg 31%
07:00 +29°C° 0 mm 6 mps 674 mmHg 28%
08:00 +32°C° 0 mm 7 mps 675 mmHg 25%
09:00 +34°C° 0 mm 9 mps 676 mmHg 22%
10:00 +35°C° 0 mm 8 mps 676 mmHg 20%
11:00 +37°C° 0 mm 8 mps 676 mmHg 19%
12:00 +38°C° 0 mm 7 mps 676 mmHg 17%
13:00 +38°C° 0 mm 6 mps 676 mmHg 16%
14:00 +39°C° 0 mm 6 mps 676 mmHg 15%
15:00 +39°C° 0 mm 5 mps 676 mmHg 13%
16:00 +37°C° 0 mm 4 mps 675 mmHg 16%
17:00 +36°C° 0 mm 3 mps 675 mmHg 18%
18:00 +35°C° 0 mm 2 mps 675 mmHg 20%
19:00 +34°C° 0 mm 2 mps 674 mmHg 25%
20:00 +31°C° 0 mm 2 mps 674 mmHg 30%
21:00 +29°C° 0 mm 1 mps 674 mmHg 35%
22:00 +28°C° 0 mm 1 mps 674 mmHg 35%
23:00 +28°C° 0 mm 1 mps 674 mmHg 35%
Show more